Spokane Felts, WA
on Tuesday, January 1, 2013

Tuesday
Previous Day Next Day
Daily Summary
 ActualAverageRecord
Temperature
Mean Temperature °F / °C 29°F / -2°C  
Max Temperature 26°F / -3°C 35°F / 2°C 55°F / 12°C (1997)
Min Temperature 17°F / -8°C 24°F / -4°C -1°F / -18°C (2011)
Degree Days
Heating Degree Days 43 36  
Month to date heating degree days 43 36  
Since 1 July heating degree days 2211 2705  
Cooling Degree Days 0 0  
Month to date cooling degree days 0 0  
Year to date cooling degree days 0 0  
Moisture
Dew Point 18°F / -8°C   
Average Humidity 76    
Maximum Humidity 84    
Minimum Humidity 68    
Precipitation
Precipitation 0.00 in / 0.00 cm 0.07 in / 1.78 cm 0.22 in / 0.56 cm (2003)
Month to date precipitation 0.00 0.07  
Year to date precipitation 0.00 0.07  
Wind
Wind Speed 2 mph / 3 km/h   
Max Wind Speed 10 mph / 16 km/h   
Max Gust Speed 12 mph / 19 km/h   
Visibility 8 miles / 13 kilometers   
Events     

Key: T is trace of precipitation, MM is missing value
Source: NWS Daily Summary
Time(PST)TemperatureDew PointHumidity Pressure Visibility Wind DirectionWind SpeedGust SpeedPrecipitationEvents Conditions
12:31 AM 17.6°F / -8.0°C 14.0°F / -10.0°C 86% 30.44 in / 1030.7 hPa 4.0 miles / 6.4 kilometers SW 3.5 mph / 5.6 km/h - N/A   Mostly Cloudy
12:46 AM 17.6°F / -8.0°C 15.8°F / -9.0°C 93% 30.43 in / 1030.4 hPa 4.0 miles / 6.4 kilometers WSW 3.5 mph / 5.6 km/h - N/A   Overcast
12:53 AM 19.9°F / -6.7°C 16.0°F / -8.9°C 85% 30.51 in / 1033.0 hPa 3.0 miles / 4.8 kilometers Calm Calm - N/A   Overcast
1:02 AM 21.2°F / -6.0°C 17.6°F / -8.0°C 86% 30.43 in / 1030.4 hPa 2.5 miles / 4.0 kilometers Calm Calm - N/A   Overcast
1:12 AM 19.4°F / -7.0°C 17.6°F / -8.0°C 93% 30.42 in / 1030.0 hPa 4.0 miles / 6.4 kilometers Calm Calm - N/A   Overcast
1:53 AM 21.0°F / -6.1°C 18.0°F / -7.8°C 88% 30.51 in / 1033.2 hPa 3.0 miles / 4.8 kilometers Calm Calm - N/A   Overcast
2:31 AM 21.2°F / -6.0°C 17.6°F / -8.0°C 86% 30.46 in / 1031.4 hPa 4.0 miles / 6.4 kilometers Variable 3.5 mph / 5.6 km/h - N/A   Overcast
2:53 AM 21.0°F / -6.1°C 17.1°F / -8.3°C 85% 30.55 in / 1034.3 hPa 5.0 miles / 8.0 kilometers West 3.5 mph / 5.6 km/h - N/A   Overcast
3:24 AM 21.2°F / -6.0°C 15.8°F / -9.0°C 80% 30.47 in / 1031.7 hPa 6.0 miles / 9.7 kilometers Variable 4.6 mph / 7.4 km/h - N/A   Haze
3:53 AM 21.0°F / -6.1°C 17.1°F / -8.3°C 85% 30.56 in / 1034.7 hPa 7.0 miles / 11.3 kilometers NNW 4.6 mph / 7.4 km/h - N/A   Overcast
4:12 AM 19.4°F / -7.0°C 17.6°F / -8.0°C 93% 30.49 in / 1032.4 hPa 9.0 miles / 14.5 kilometers Calm Calm - N/A   Overcast
4:53 AM 21.0°F / -6.1°C 17.1°F / -8.3°C 85% 30.57 in / 1035.2 hPa 9.0 miles / 14.5 kilometers Calm Calm - N/A   Overcast
5:25 AM 21.2°F / -6.0°C 15.8°F / -9.0°C 80% 30.49 in / 1032.4 hPa 10.0 miles / 16.1 kilometers Calm Calm - N/A   Overcast
5:53 AM 21.9°F / -5.6°C 17.1°F / -8.3°C 82% 30.58 in / 1035.5 hPa 10.0 miles / 16.1 kilometers Calm Calm - N/A   Overcast
6:53 AM 21.9°F / -5.6°C 17.1°F / -8.3°C 82% 30.58 in / 1035.4 hPa 9.0 miles / 14.5 kilometers Calm Calm - N/A   Overcast
7:53 AM 21.9°F / -5.6°C 17.1°F / -8.3°C 82% 30.59 in / 1035.8 hPa 9.0 miles / 14.5 kilometers WSW 4.6 mph / 7.4 km/h - N/A   Overcast
8:53 AM 23.0°F / -5.0°C 18.0°F / -7.8°C 81% 30.61 in / 1036.5 hPa 9.0 miles / 14.5 kilometers Calm Calm - N/A   Overcast
9:53 AM 24.1°F / -4.4°C 18.0°F / -7.8°C 77% 30.64 in / 1037.4 hPa 9.0 miles / 14.5 kilometers West 3.5 mph / 5.6 km/h - N/A   Overcast
10:53 AM 25.0°F / -3.9°C 19.0°F / -7.2°C 78% 30.64 in / 1037.5 hPa 10.0 miles / 16.1 kilometers Variable 3.5 mph / 5.6 km/h - N/A   Overcast
11:53 AM 26.1°F / -3.3°C 18.0°F / -7.8°C 71% 30.63 in / 1037.2 hPa 10.0 miles / 16.1 kilometers SW 8.1 mph / 13.0 km/h - N/A   Overcast
12:53 PM 26.1°F / -3.3°C 18.0°F / -7.8°C 71% 30.63 in / 1037.2 hPa 10.0 miles / 16.1 kilometers SW 3.5 mph / 5.6 km/h - N/A   Overcast
1:53 PM 26.1°F / -3.3°C 18.0°F / -7.8°C 71% 30.63 in / 1037.3 hPa 10.0 miles / 16.1 kilometers Calm Calm - N/A   Overcast
2:53 PM 26.1°F / -3.3°C 18.0°F / -7.8°C 71% 30.63 in / 1037.3 hPa 10.0 miles / 16.1 kilometers Calm Calm - N/A   Overcast
3:53 PM 26.1°F / -3.3°C 18.0°F / -7.8°C 71% 30.64 in / 1037.4 hPa 10.0 miles / 16.1 kilometers Calm Calm - N/A   Overcast
4:53 PM 26.1°F / -3.3°C 18.0°F / -7.8°C 71% 30.64 in / 1037.6 hPa 10.0 miles / 16.1 kilometers Calm Calm - N/A   Overcast
5:53 PM 26.1°F / -3.3°C 19.0°F / -7.2°C 75% 30.64 in / 1037.5 hPa 10.0 miles / 16.1 kilometers SW 3.5 mph / 5.6 km/h - N/A   Overcast
6:53 PM 26.1°F / -3.3°C 19.0°F / -7.2°C 75% 30.65 in / 1037.7 hPa 10.0 miles / 16.1 kilometers Calm Calm - N/A   Overcast
7:53 PM 26.1°F / -3.3°C 19.0°F / -7.2°C 75% 30.65 in / 1037.7 hPa 10.0 miles / 16.1 kilometers Calm Calm - N/A   Overcast
8:53 PM 26.1°F / -3.3°C 19.0°F / -7.2°C 75% 30.65 in / 1037.7 hPa 10.0 miles / 16.1 kilometers ENE 3.5 mph / 5.6 km/h - N/A   Overcast
9:53 PM 26.1°F / -3.3°C 19.0°F / -7.2°C 75% 30.64 in / 1037.6 hPa 10.0 miles / 16.1 kilometers Calm Calm - N/A   Overcast
10:53 PM 26.1°F / -3.3°C 19.0°F / -7.2°C 75% 30.64 in / 1037.6 hPa 10.0 miles / 16.1 kilometers Calm Calm - N/A   Overcast
11:53 PM 26.1°F / -3.3°C 18.0°F / -7.8°C 71% 30.65 in / 1037.7 hPa 10.0 miles / 16.1 kilometers Calm Calm - N/A   Overcast
Moon Phase
Jan. 01 Jan. 04 Jan. 11 Jan. 18 Jan. 26
Sunrise:07:37 AM (PST) Moon Rise:09:05 PM (PST)1/1
Sunset:04:08 PM (PST) Moon Set:09:32 AM (PST)1/1

Copyright © 2014 The Weather Underground, Inc.